Location: Carlisle
(34.5501°N, 84.5969°W)
Time: 08:08:25
(UTC+00:00)

AO-85 - Visible Passes

Search period start: 01 April 2023 00:00
Search period end: 11 April 2023 00:00
Orbit: 516 x 753 km, 64.8° (Epoch: 04 January)

Date Brightness Start Highest point End Pass type
(mag) Time Alt. Az. Time Alt. Az. Time Alt. Az.
03 Apr ? 10:38:15 10° ESE 10:39:00 10° ESE 10:39:46 10° E visible
04 Apr ? 10:56:37 10° S 11:00:20 27° ESE 11:03:53 10° NE visible
06 Apr ? 10:01:05 10° SE 10:03:30 15° ESE 10:05:50 10° ENE visible
07 Apr ? 10:20:48 10° S 10:24:51 37° ESE 10:28:41 10° NE visible
08 Apr ? 10:41:57 10° SSW 10:46:19 80° WNW 10:50:26 10° NNE visible
09 Apr ? 09:24:46 10° SSE 09:27:57 20° ESE 09:31:00 10° ENE visible
10 Apr ? 09:46:12 17° S 09:49:19 52° ESE 09:53:19 10° NE visible
